Regional Weather Roundup
Issued by NWS Sioux Falls, SD

Home | Current Version | Previous Version | Text Only | Print | Product List | Glossary Off
Versions: 1 2 3 4 5 6 7 8 9 10 11 12 13 14 15 16 17 18 19 20 21 22 23 24 25 26 27 28 29 30 31 32 33 34 35 36 37 38 39 40 41 42 43 44 45 46 47 48 49 50

000
ASUS43 KFSD 290502
RWRFSD

WEATHER ROUNDUP FOR SE SOUTH DAKOTA/SW MINNESOTA/NW IOWA
NATIONAL WEATHER SERVICE SIOUX FALLS SD
1200 AM CDT SAT APR 29 2017

NOTE: "FAIR" INDICATES FEW OR NO CLOUDS BELOW 12,000 FEET WITH NO
SIGNIFICANT WEATHER AND OR OBSTRUCTIONS TO VISIBILITY.


SDZ038>040-050-052>070-290600-
SOUTHEAST SOUTH DAKOTA

CITY           SKY/WX    TMP DP  RH WIND       PRES   REMARKS
BROOKINGS      CLOUDY    36  22  56 N7        30.14S
CHAMBERLAIN    PTCLDY    42  23  47 N5        30.18R
HURON          CLOUDY    33  22  63 N7        30.17R WCI  27
MADISON        FAIR      32  25  74 N10       30.14R WCI  24
MITCHELL       CLOUDY    36  24  62 N3        30.17R
SIOUX FALLS    CLOUDY    38  27  64 N3        30.13R
WINNER         CLOUDY    43  25  49 N8        30.18R
YANKTON        CLOUDY    43  28  56 N9        30.14R
$$

MNZ071-072-080-081-089-090-097-098-290600-
SOUTHWEST MINNESOTA

CITY           SKY/WX    TMP DP  RH WIND       PRES   REMARKS
FAIRMONT       CLOUDY    38  32  79 N6        30.11R
JACKSON        CLOUDY    34  30  86 CALM      30.11R
LUVERNE        CLOUDY    36  27  69 NE5       30.13R
MARSHALL       CLOUDY    32  25  75 NW9       30.15R WCI  24
MONTEVIDEO     CLOUDY    37  25  60 NE12      30.15R
PIPESTONE      CLOUDY    37  21  52 NE9       30.12R
REDWOOD FALLS  CLOUDY    41  24  51 N8        30.12R
TRACY          CLOUDY    38  25  61 NW8       30.14R
WINDOM         CLOUDY    36  28  75 VRB5      30.12R
$$

IAZ001>003-012>014-020>022-031-032-NEZ013-014-SDZ071-290600-
NORTHWEST IOWA

CITY           SKY/WX    TMP DP  RH WIND       PRES   REMARKS
CHEROKEE       CLOUDY    40  35  82 N3        30.12R
DENISON        CLOUDY    43  37  81 N7        30.09S
ESTHERVILLE    CLOUDY    34  32  92 N6        30.11R WCI  29
LE MARS        CLOUDY    39  34  81 CALM      30.13R
ORANGE CITY    CLOUDY    41  34  75 NE5       30.12R
SHELDON        CLOUDY    37  32  81 NE9       30.10R
SIOUX CITY     CLOUDY    45  34  65 CALM      30.13R
SPENCER        CLOUDY    37  32  82 NE5       30.12R
$$

ABBREVIATIONS USED IN REMARKS
   TC - TEMPERATURE IN CELSIUS
  WCI - WIND CHILL INDEX
   HX - HEAT INDEX
  VSB - VISIBILITY





USA.gov is the U.S. government's official web portal to all federal, state and local government web resources and services.